LXJ11WF KDTW-KDEN

Flight info

Callsign LXJ11WF
Flight time 2h 36m
Altitude 38000
Route KAYLN3 SMUUV IANNA ONL PORDR AALLE4
Aircraft C750/M-SBDE3FGHRWXY/L

Departure

Time 2026-05-07 19:40
Airport Detroit Metropolitan Wayne County Airport (KDTW)

Arrival

Time 2026-05-07 22:17
Airport Denver International Airport (KDEN)
Time Latitude Longitude Altitude Speed Heading
2026-05-07 19:32 42.22875 -83.34071 634 ft 0 kts 301°
2026-05-07 19:38 42.22876 -83.34072 634 ft 0 kts 334°
2026-05-07 19:38 42.22863 -83.34066 634 ft 5 kts 212°
2026-05-07 19:38 42.22825 -83.34049 634 ft 6 kts 132°
2026-05-07 19:38 42.22765 -83.33944 632 ft 19 kts 117°
2026-05-07 19:39 42.22800 -83.33817 632 ft 15 kts 33°
2026-05-07 19:39 42.22848 -83.33695 632 ft 18 kts 114°
2026-05-07 19:39 42.22730 -83.33679 632 ft 34 kts 210°
2026-05-07 19:39 42.22246 -83.34034 633 ft 120 kts 210°
2026-05-07 19:40 42.21291 -83.34626 933 ft 162 kts 212°
2026-05-07 19:40 42.20173 -83.35313 1049 ft 188 kts 214°
2026-05-07 19:40 42.19115 -83.36272 1632 ft 181 kts 229°
2026-05-07 19:40 42.18294 -83.37680 2114 ft 195 kts 243°
2026-05-07 19:41 42.17531 -83.39226 2908 ft 199 kts 242°
2026-05-07 19:41 42.16684 -83.40752 3556 ft 206 kts 238°
2026-05-07 19:41 42.15820 -83.42326 3874 ft 213 kts 238°
2026-05-07 19:41 42.14914 -83.43991 4042 ft 222 kts 238°
2026-05-07 19:42 42.13967 -83.45717 4184 ft 228 kts 238°
2026-05-07 19:42 42.13010 -83.47471 4324 ft 235 kts 238°
2026-05-07 19:42 42.12016 -83.49294 4463 ft 240 kts 238°
2026-05-07 19:42 42.11007 -83.51125 4616 ft 238 kts 238°
2026-05-07 19:43 42.10002 -83.52969 4704 ft 249 kts 238°
2026-05-07 19:43 42.08946 -83.54898 5155 ft 259 kts 238°
2026-05-07 19:43 42.07862 -83.56874 5830 ft 253 kts 238°
2026-05-07 19:43 42.06800 -83.58805 6052 ft 256 kts 238°
2026-05-07 19:44 42.05875 -83.60876 6282 ft 256 kts 257°
2026-05-07 19:44 42.05933 -83.63241 6601 ft 253 kts 291°
2026-05-07 19:44 42.06894 -83.65214 7005 ft 252 kts 306°
2026-05-07 19:44 42.07905 -83.67139 7416 ft 250 kts 304°
2026-05-07 19:45 42.08945 -83.69064 7785 ft 250 kts 304°
2026-05-07 19:45 42.09970 -83.70963 8116 ft 251 kts 304°
2026-05-07 19:45 42.11008 -83.72893 8440 ft 252 kts 304°
2026-05-07 19:45 42.12043 -83.74807 8806 ft 251 kts 304°
2026-05-07 19:46 42.13101 -83.76772 8976 ft 256 kts 304°
2026-05-07 19:46 42.14182 -83.78779 8989 ft 256 kts 304°
2026-05-07 19:46 42.15236 -83.80739 9003 ft 255 kts 304°
2026-05-07 19:46 42.16271 -83.82659 9332 ft 247 kts 304°
2026-05-07 19:47 42.17345 -83.84663 9919 ft 274 kts 304°
2026-05-07 19:47 42.18529 -83.86868 10505 ft 300 kts 304°
2026-05-07 19:47 42.19812 -83.89254 11077 ft 320 kts 304°
2026-05-07 19:47 42.21155 -83.91761 11628 ft 328 kts 304°
2026-05-07 19:48 42.22517 -83.94299 12158 ft 336 kts 303°
2026-05-07 19:48 42.23902 -83.96885 12690 ft 342 kts 303°
2026-05-07 19:48 42.25366 -83.99623 13238 ft 348 kts 303°
2026-05-07 19:48 42.26811 -84.02330 13776 ft 353 kts 303°
2026-05-07 19:49 42.28270 -84.05057 14331 ft 357 kts 303°
2026-05-07 19:49 42.29755 -84.07834 14872 ft 360 kts 303°
2026-05-07 19:49 42.31246 -84.10636 15400 ft 363 kts 303°
2026-05-07 19:49 42.32739 -84.13435 15941 ft 366 kts 303°
2026-05-07 19:50 42.34253 -84.16282 16488 ft 368 kts 303°
2026-05-07 19:50 42.35753 -84.19106 17141 ft 371 kts 303°
2026-05-07 19:50 42.37282 -84.21983 17936 ft 374 kts 303°
2026-05-07 19:50 42.38826 -84.24895 18710 ft 376 kts 302°
2026-05-07 19:51 42.40403 -84.27865 19478 ft 377 kts 302°
2026-05-07 19:51 42.41964 -84.30825 20254 ft 377 kts 302°
2026-05-07 19:51 42.43079 -84.34081 20982 ft 373 kts 281°
2026-05-07 19:51 42.43205 -84.37575 21791 ft 371 kts 271°
2026-05-07 19:52 42.43334 -84.41089 22564 ft 370 kts 273°
2026-05-07 19:52 42.43418 -84.44624 23333 ft 370 kts 272°
2026-05-07 19:52 42.43514 -84.48080 24092 ft 369 kts 272°
2026-05-07 19:52 42.43603 -84.51614 24843 ft 368 kts 272°
2026-05-07 19:53 42.43696 -84.55084 25561 ft 367 kts 272°
2026-05-07 19:53 42.43783 -84.58549 26251 ft 365 kts 272°
2026-05-07 19:53 42.43870 -84.61976 26892 ft 363 kts 272°
2026-05-07 19:53 42.43956 -84.65436 27483 ft 360 kts 271°
2026-05-07 19:54 42.44038 -84.68839 28092 ft 358 kts 271°
2026-05-07 19:54 42.44118 -84.72202 28669 ft 355 kts 271°
2026-05-07 19:54 42.44201 -84.75552 29250 ft 351 kts 271°
2026-05-07 19:54 42.44277 -84.78845 29822 ft 347 kts 271°
2026-05-07 19:55 42.44352 -84.82080 30427 ft 343 kts 271°
2026-05-07 19:55 42.44429 -84.85344 31042 ft 339 kts 271°
2026-05-07 19:55 42.44500 -84.88529 31639 ft 335 kts 271°
2026-05-07 19:55 42.44572 -84.91688 32237 ft 330 kts 271°
2026-05-07 19:56 42.44642 -84.94750 32815 ft 324 kts 271°
2026-05-07 19:56 42.44720 -84.97807 33409 ft 318 kts 271°
2026-05-07 19:56 42.44800 -85.00794 34048 ft 312 kts 271°
2026-05-07 19:56 42.44882 -85.03697 34683 ft 305 kts 271°
2026-05-07 19:57 42.44957 -85.06545 35310 ft 298 kts 271°
2026-05-07 19:57 42.45036 -85.09349 35937 ft 289 kts 271°
2026-05-07 19:57 42.45107 -85.12028 36546 ft 280 kts 271°
2026-05-07 19:57 42.45168 -85.14643 37082 ft 273 kts 270°
2026-05-07 19:58 42.45210 -85.17230 37267 ft 277 kts 271°
2026-05-07 19:58 42.45258 -85.19859 37471 ft 280 kts 271°
2026-05-07 19:58 42.45308 -85.22546 37676 ft 283 kts 271°
2026-05-07 19:58 42.45357 -85.25234 37886 ft 286 kts 271°
2026-05-07 19:59 42.45408 -85.27969 37952 ft 294 kts 271°
2026-05-07 19:59 42.45457 -85.30791 37972 ft 302 kts 271°
2026-05-07 19:59 42.45563 -85.36698 37971 ft 320 kts 271°
2026-05-07 20:00 42.45669 -85.42921 37964 ft 337 kts 271°
2026-05-07 20:00 42.45777 -85.49451 37968 ft 353 kts 271°
2026-05-07 20:01 42.45886 -85.56320 37963 ft 367 kts 271°
2026-05-07 20:01 42.45995 -85.63394 37947 ft 381 kts 271°
2026-05-07 20:02 42.46100 -85.70759 37959 ft 393 kts 271°
2026-05-07 20:02 42.46212 -85.78339 37954 ft 405 kts 271°
2026-05-07 20:03 42.46314 -85.86111 37950 ft 416 kts 271°
2026-05-07 20:03 42.46416 -85.94076 37944 ft 425 kts 271°
2026-05-07 20:04 42.46514 -86.02268 37949 ft 434 kts 271°
2026-05-07 20:04 42.46607 -86.10575 37952 ft 442 kts 271°
2026-05-07 20:05 42.47448 -86.18959 37940 ft 448 kts 275°
2026-05-07 20:05 42.47142 -86.23161 38024 ft 448 kts 260°
2026-05-07 20:05 42.46862 -86.27358 37937 ft 448 kts 271°
2026-05-07 20:06 42.46875 -86.35865 37961 ft 450 kts 271°
2026-05-07 20:06 42.46936 -86.44385 37940 ft 451 kts 271°
2026-05-07 20:07 42.47003 -86.52976 37939 ft 447 kts 271°
2026-05-07 20:07 42.47065 -86.61371 37930 ft 441 kts 271°
2026-05-07 20:08 42.47119 -86.69698 37941 ft 437 kts 271°
2026-05-07 20:08 42.47167 -86.77955 37943 ft 433 kts 271°
2026-05-07 20:09 42.47209 -86.86103 37938 ft 430 kts 270°
2026-05-07 20:10 42.47257 -86.98268 37934 ft 426 kts 271°
2026-05-07 20:10 42.47284 -87.06332 37931 ft 423 kts 271°
2026-05-07 20:11 42.47302 -87.14294 37932 ft 420 kts 271°
2026-05-07 20:11 42.47318 -87.22247 37928 ft 418 kts 271°
2026-05-07 20:12 42.47331 -87.30167 37918 ft 416 kts 271°
2026-05-07 20:12 42.47334 -87.37974 37920 ft 414 kts 271°
2026-05-07 20:13 42.47339 -87.45879 37919 ft 412 kts 272°
2026-05-07 20:13 42.47553 -87.53649 37918 ft 410 kts 273°
2026-05-07 20:14 42.47780 -87.61382 37909 ft 408 kts 273°
2026-05-07 20:14 42.47999 -87.69153 37927 ft 407 kts 273°
2026-05-07 20:15 42.48217 -87.76857 37931 ft 406 kts 273°
2026-05-07 20:15 42.48431 -87.84595 37921 ft 406 kts 273°
2026-05-07 20:16 42.48636 -87.92280 37916 ft 406 kts 273°
2026-05-07 20:16 42.48838 -87.99990 37923 ft 406 kts 273°
2026-05-07 20:17 42.49034 -88.07702 37905 ft 406 kts 273°
2026-05-07 20:17 42.49223 -88.15425 37926 ft 406 kts 273°
2026-05-07 20:18 42.49408 -88.23110 37908 ft 406 kts 273°
2026-05-07 20:18 42.49592 -88.30825 37915 ft 405 kts 273°
2026-05-07 20:19 42.49765 -88.38488 37907 ft 406 kts 273°
2026-05-07 20:19 42.49936 -88.46192 37903 ft 405 kts 273°
2026-05-07 20:20 42.50102 -88.53896 37897 ft 405 kts 273°
2026-05-07 20:20 42.50261 -88.61591 37889 ft 405 kts 273°
2026-05-07 20:21 42.50414 -88.69244 37919 ft 405 kts 272°
2026-05-07 20:21 42.50563 -88.76942 37898 ft 405 kts 273°
2026-05-07 20:22 42.50707 -88.84642 37907 ft 406 kts 272°
2026-05-07 20:22 42.50849 -88.92358 37904 ft 406 kts 273°
2026-05-07 20:23 42.50984 -89.00098 37904 ft 406 kts 272°
2026-05-07 20:23 42.51112 -89.07800 37895 ft 406 kts 273°
2026-05-07 20:24 42.51234 -89.15505 37894 ft 406 kts 272°
2026-05-07 20:24 42.51352 -89.23179 37892 ft 406 kts 273°
2026-05-07 20:25 42.51467 -89.30892 37890 ft 406 kts 273°
2026-05-07 20:25 42.51577 -89.38613 37892 ft 406 kts 273°
2026-05-07 20:26 42.51680 -89.46346 37893 ft 406 kts 273°
2026-05-07 20:26 42.51776 -89.54027 37886 ft 406 kts 273°
2026-05-07 20:27 42.51870 -89.61765 37885 ft 405 kts 273°
2026-05-07 20:27 42.51956 -89.69485 37892 ft 405 kts 272°
2026-05-07 20:28 42.52042 -89.77172 37898 ft 406 kts 272°
2026-05-07 20:28 42.52117 -89.84925 37898 ft 406 kts 272°
2026-05-07 20:29 42.52191 -89.92636 37890 ft 407 kts 272°
2026-05-07 20:29 42.52257 -90.00338 37892 ft 407 kts 273°
2026-05-07 20:30 42.52321 -90.08053 37895 ft 407 kts 272°
2026-05-07 20:30 42.52592 -90.11893 37877 ft 405 kts 283°
2026-05-07 20:30 42.53280 -90.15606 37908 ft 404 kts 285°
2026-05-07 20:31 42.54523 -90.23132 37864 ft 406 kts 274°
2026-05-07 20:31 42.54018 -90.26879 37914 ft 415 kts 253°
2026-05-07 20:31 42.52876 -90.30458 37890 ft 412 kts 258°
2026-05-07 20:31 42.52587 -90.34310 37943 ft 402 kts 272°
2026-05-07 20:32 42.52552 -90.38137 37896 ft 404 kts 272°
2026-05-07 20:32 42.52551 -90.45770 37900 ft 404 kts 272°
2026-05-07 20:33 42.52578 -90.53461 37898 ft 404 kts 273°
2026-05-07 20:33 42.52604 -90.61162 37898 ft 403 kts 273°
2026-05-07 20:34 42.52624 -90.68832 37906 ft 401 kts 272°
2026-05-07 20:34 42.52639 -90.76435 37905 ft 400 kts 272°
2026-05-07 20:35 42.52652 -90.84027 37902 ft 400 kts 272°
2026-05-07 20:35 42.52657 -90.91629 37901 ft 400 kts 272°
2026-05-07 20:36 42.52657 -90.99215 37897 ft 398 kts 272°
2026-05-07 20:36 42.52653 -91.06789 37893 ft 396 kts 272°
2026-05-07 20:37 42.52645 -91.14332 37893 ft 395 kts 272°
2026-05-07 20:37 42.52629 -91.21814 37891 ft 394 kts 272°
2026-05-07 20:38 42.52612 -91.29271 37885 ft 393 kts 272°
2026-05-07 20:38 42.52587 -91.36742 37892 ft 391 kts 272°
2026-05-07 20:39 42.52555 -91.44112 37886 ft 391 kts 272°
2026-05-07 20:39 42.52527 -91.51530 37886 ft 390 kts 272°
2026-05-07 20:40 42.52486 -91.58916 37888 ft 389 kts 272°
2026-05-07 20:40 42.52447 -91.66270 37892 ft 388 kts 272°
2026-05-07 20:41 42.52397 -91.73633 37904 ft 388 kts 272°
2026-05-07 20:41 42.52345 -91.81003 37910 ft 388 kts 272°
2026-05-07 20:42 42.52290 -91.88361 37915 ft 388 kts 272°
2026-05-07 20:42 42.52230 -91.95776 37907 ft 388 kts 272°
2026-05-07 20:43 42.52162 -92.03104 37915 ft 388 kts 272°
2026-05-07 20:43 42.52092 -92.10495 37908 ft 388 kts 272°
2026-05-07 20:44 42.52017 -92.17866 37913 ft 388 kts 272°
2026-05-07 20:44 42.51937 -92.25272 37901 ft 388 kts 272°
2026-05-07 20:45 42.51851 -92.32592 37894 ft 386 kts 272°
2026-05-07 20:45 42.51762 -92.39835 37898 ft 382 kts 272°
2026-05-07 20:46 42.51669 -92.47034 37882 ft 378 kts 272°
2026-05-07 20:46 42.51577 -92.54166 37882 ft 375 kts 272°
2026-05-07 20:47 42.51476 -92.61286 37886 ft 372 kts 272°
2026-05-07 20:47 42.51372 -92.68323 37859 ft 368 kts 271°
2026-05-07 20:48 42.51266 -92.75312 37893 ft 366 kts 271°
2026-05-07 20:48 42.51153 -92.82228 37907 ft 364 kts 272°
2026-05-07 20:49 42.51039 -92.89184 37900 ft 363 kts 272°
2026-05-07 20:49 42.50925 -92.96057 37905 ft 362 kts 272°
2026-05-07 20:50 42.50803 -93.02898 37892 ft 364 kts 272°
2026-05-07 20:50 42.50724 -93.09843 37904 ft 366 kts 274°
2026-05-07 20:51 42.50859 -93.16867 37900 ft 368 kts 274°
2026-05-07 20:51 42.50976 -93.23818 37920 ft 370 kts 274°
2026-05-07 20:52 42.51089 -93.30866 37920 ft 372 kts 274°
2026-05-07 20:52 42.51199 -93.37910 37905 ft 374 kts 274°
2026-05-07 20:53 42.51305 -93.45109 37907 ft 383 kts 274°
2026-05-07 20:53 42.51413 -93.52472 37887 ft 391 kts 274°
2026-05-07 20:54 42.51515 -93.59952 37889 ft 399 kts 274°
2026-05-07 20:54 42.51614 -93.67613 37886 ft 405 kts 273°
2026-05-07 20:55 42.51710 -93.75418 37899 ft 412 kts 273°
2026-05-07 20:55 42.51802 -93.83317 37903 ft 418 kts 273°
2026-05-07 20:56 42.51891 -93.91304 37889 ft 424 kts 273°
2026-05-07 20:56 42.51975 -93.99414 37907 ft 428 kts 273°
2026-05-07 20:57 42.52801 -94.07457 37926 ft 428 kts 282°
2026-05-07 20:57 42.53077 -94.11507 37884 ft 434 kts 270°
2026-05-07 20:57 42.52500 -94.15504 37936 ft 438 kts 262°
2026-05-07 20:58 42.52226 -94.23800 37894 ft 436 kts 272°
2026-05-07 20:58 42.52256 -94.32067 37895 ft 439 kts 273°
2026-05-07 20:59 42.52307 -94.40473 37877 ft 442 kts 273°
2026-05-07 20:59 42.52358 -94.48894 37875 ft 444 kts 273°
2026-05-07 21:00 42.52402 -94.57331 37873 ft 446 kts 273°
2026-05-07 21:00 42.52439 -94.65816 37865 ft 448 kts 272°
2026-05-07 21:01 42.52475 -94.74361 37873 ft 450 kts 272°
2026-05-07 21:01 42.52498 -94.82983 37874 ft 453 kts 272°
2026-05-07 21:02 42.52518 -94.91573 37872 ft 454 kts 272°
2026-05-07 21:02 42.52530 -95.00177 37878 ft 455 kts 272°
2026-05-07 21:03 42.52537 -95.08830 37891 ft 446 kts 272°
2026-05-07 21:03 42.52538 -95.17164 37888 ft 433 kts 272°
2026-05-07 21:04 42.52531 -95.25190 37889 ft 415 kts 272°
2026-05-07 21:04 42.52522 -95.32920 37886 ft 400 kts 272°
2026-05-07 21:05 42.52507 -95.40373 37879 ft 387 kts 272°
2026-05-07 21:05 42.52486 -95.47568 37880 ft 375 kts 273°
2026-05-07 21:06 42.52465 -95.54601 37876 ft 365 kts 272°
2026-05-07 21:06 42.52437 -95.61496 37872 ft 357 kts 273°
2026-05-07 21:07 42.52408 -95.68225 37893 ft 360 kts 272°
2026-05-07 21:07 42.52391 -95.71709 37900 ft 371 kts 272°
2026-05-07 21:07 42.52376 -95.75316 37894 ft 381 kts 272°
2026-05-07 21:08 42.52332 -95.82681 37877 ft 397 kts 272°
2026-05-07 21:08 42.52283 -95.90391 37879 ft 412 kts 272°
2026-05-07 21:09 42.52226 -95.98277 37882 ft 425 kts 272°
2026-05-07 21:09 42.52163 -96.06529 37879 ft 435 kts 271°
2026-05-07 21:10 42.52090 -96.14844 37889 ft 444 kts 271°
2026-05-07 21:10 42.52015 -96.23354 37892 ft 452 kts 271°
2026-05-07 21:11 42.51928 -96.31963 37891 ft 459 kts 271°
2026-05-07 21:11 42.51784 -96.44991 37879 ft 455 kts 271°
2026-05-07 21:12 42.51685 -96.53559 37880 ft 448 kts 271°
2026-05-07 21:12 42.51577 -96.62024 37883 ft 443 kts 271°
2026-05-07 21:13 42.51467 -96.70389 37884 ft 438 kts 271°
2026-05-07 21:13 42.51353 -96.78637 37892 ft 434 kts 271°
2026-05-07 21:14 42.51231 -96.86890 37889 ft 431 kts 271°
2026-05-07 21:14 42.51105 -96.95036 37879 ft 429 kts 271°
2026-05-07 21:15 42.50972 -97.03194 37878 ft 427 kts 271°
2026-05-07 21:15 42.50836 -97.11385 37878 ft 425 kts 271°
2026-05-07 21:16 42.50691 -97.19624 37877 ft 424 kts 271°
2026-05-07 21:16 42.50539 -97.27831 37871 ft 423 kts 271°
2026-05-07 21:17 42.50386 -97.35825 37873 ft 422 kts 271°
2026-05-07 21:17 42.50233 -97.43775 37869 ft 421 kts 271°
2026-05-07 21:18 42.50069 -97.51733 37866 ft 420 kts 271°
2026-05-07 21:18 42.49902 -97.59679 37869 ft 419 kts 271°
2026-05-07 21:19 42.49730 -97.67602 37883 ft 418 kts 270°
2026-05-07 21:19 42.49552 -97.75523 37875 ft 418 kts 270°
2026-05-07 21:20 42.49369 -97.83482 37878 ft 419 kts 270°
2026-05-07 21:20 42.49176 -97.91491 37878 ft 423 kts 270°
2026-05-07 21:21 42.48980 -97.99467 37880 ft 424 kts 270°
2026-05-07 21:21 42.48777 -98.07540 37878 ft 424 kts 270°
2026-05-07 21:22 42.48566 -98.15649 37876 ft 424 kts 270°
2026-05-07 21:22 42.48353 -98.23707 37877 ft 424 kts 270°
2026-05-07 21:23 42.48132 -98.31729 37880 ft 424 kts 270°
2026-05-07 21:23 42.47908 -98.39751 37886 ft 423 kts 270°
2026-05-07 21:24 42.47678 -98.47726 37892 ft 423 kts 270°
2026-05-07 21:24 42.47443 -98.55733 37893 ft 420 kts 270°
2026-05-07 21:25 42.47203 -98.63672 37902 ft 417 kts 270°
2026-05-07 21:25 42.45760 -98.71268 37949 ft 429 kts 244°
2026-05-07 21:26 42.42625 -98.78291 37917 ft 433 kts 243°
2026-05-07 21:26 42.39391 -98.85335 37908 ft 435 kts 243°
2026-05-07 21:27 42.36150 -98.92356 37896 ft 436 kts 243°
2026-05-07 21:27 42.32909 -98.99359 37896 ft 438 kts 242°
2026-05-07 21:28 42.29646 -99.06392 37890 ft 439 kts 242°
2026-05-07 21:28 42.26340 -99.13502 37886 ft 440 kts 243°
2026-05-07 21:29 42.23054 -99.20557 37887 ft 440 kts 242°
2026-05-07 21:29 42.19787 -99.27545 37886 ft 440 kts 242°
2026-05-07 21:30 42.16513 -99.34538 37891 ft 440 kts 243°
2026-05-07 21:30 42.13219 -99.41554 37884 ft 440 kts 243°
2026-05-07 21:31 42.09927 -99.48556 37888 ft 440 kts 243°
2026-05-07 21:31 42.06642 -99.55519 37904 ft 439 kts 243°
2026-05-07 21:32 42.03331 -99.62529 37905 ft 440 kts 243°
2026-05-07 21:32 42.00008 -99.69540 37910 ft 440 kts 242°
2026-05-07 21:33 41.96679 -99.76550 37912 ft 442 kts 242°
2026-05-07 21:33 41.93313 -99.83625 37911 ft 447 kts 242°
2026-05-07 21:34 41.89909 -99.90758 37912 ft 452 kts 242°
2026-05-07 21:34 41.86499 -99.97890 37904 ft 455 kts 242°
2026-05-07 21:35 41.83019 -100.05153 37891 ft 458 kts 242°
2026-05-07 21:35 41.79550 -100.12369 37887 ft 461 kts 242°
2026-05-07 21:36 41.76020 -100.19697 37893 ft 462 kts 242°
2026-05-07 21:36 41.72554 -100.26880 37901 ft 464 kts 242°
2026-05-07 21:37 41.68969 -100.34285 37904 ft 465 kts 242°
2026-05-07 21:37 41.65438 -100.41563 37906 ft 466 kts 242°
2026-05-07 21:38 41.61888 -100.48862 37902 ft 463 kts 242°
2026-05-07 21:38 41.58351 -100.56118 37903 ft 461 kts 242°
2026-05-07 21:39 41.54807 -100.63372 37906 ft 459 kts 242°
2026-05-07 21:39 41.51288 -100.70554 37916 ft 457 kts 241°
2026-05-07 21:40 41.47790 -100.77682 37916 ft 456 kts 241°
2026-05-07 21:40 41.44294 -100.84786 37920 ft 456 kts 241°
2026-05-07 21:41 41.40776 -100.91917 37924 ft 455 kts 241°
2026-05-07 21:41 41.37288 -100.98981 37927 ft 454 kts 242°
2026-05-07 21:42 41.34709 -101.06557 37917 ft 447 kts 250°
2026-05-07 21:42 41.32252 -101.14222 37912 ft 447 kts 251°
2026-05-07 21:43 41.29804 -101.21835 37913 ft 447 kts 251°
2026-05-07 21:43 41.27342 -101.29475 37910 ft 446 kts 251°
2026-05-07 21:44 41.24877 -101.37097 37908 ft 445 kts 251°
2026-05-07 21:44 41.22432 -101.44643 37906 ft 445 kts 251°
2026-05-07 21:45 41.19959 -101.52358 37909 ft 449 kts 251°
2026-05-07 21:45 41.17483 -101.60073 37914 ft 453 kts 251°
2026-05-07 21:46 41.14969 -101.67865 37931 ft 456 kts 251°
2026-05-07 21:46 41.12441 -101.75689 37945 ft 457 kts 251°
2026-05-07 21:47 41.09939 -101.83410 37941 ft 448 kts 251°
2026-05-07 21:47 41.07485 -101.90953 37943 ft 439 kts 251°
2026-05-07 21:48 41.05054 -101.98416 37929 ft 432 kts 251°
2026-05-07 21:48 41.02692 -102.05644 37940 ft 426 kts 251°
2026-05-07 21:49 41.00325 -102.12866 37938 ft 425 kts 251°
2026-05-07 21:49 40.97969 -102.20046 37939 ft 426 kts 252°
2026-05-07 21:50 40.95555 -102.27386 37954 ft 439 kts 251°
2026-05-07 21:50 40.93065 -102.34919 37948 ft 448 kts 251°
2026-05-07 21:51 40.90540 -102.42551 37965 ft 451 kts 252°
2026-05-07 21:51 40.87988 -102.50235 37959 ft 451 kts 251°
2026-05-07 21:52 40.85448 -102.57867 37609 ft 452 kts 252°
2026-05-07 21:52 40.84177 -102.61672 36819 ft 444 kts 252°
2026-05-07 21:52 40.82962 -102.65287 36013 ft 428 kts 252°
2026-05-07 21:53 40.81755 -102.68896 35327 ft 414 kts 252°
2026-05-07 21:53 40.80618 -102.72292 34720 ft 400 kts 252°
2026-05-07 21:53 40.79474 -102.75698 34124 ft 397 kts 253°
2026-05-07 21:53 40.78345 -102.79099 33542 ft 402 kts 253°
2026-05-07 21:54 40.77213 -102.82487 32974 ft 406 kts 253°
2026-05-07 21:54 40.76056 -102.85932 32371 ft 415 kts 252°
2026-05-07 21:54 40.74864 -102.89462 32121 ft 415 kts 252°
2026-05-07 21:54 40.73674 -102.92973 32079 ft 411 kts 252°
2026-05-07 21:55 40.71355 -102.99812 32020 ft 403 kts 252°
2026-05-07 21:55 40.69079 -103.06519 32016 ft 397 kts 252°
2026-05-07 21:56 40.66820 -103.13152 31990 ft 389 kts 252°
2026-05-07 21:56 40.64613 -103.19624 31996 ft 387 kts 253°
2026-05-07 21:57 40.62374 -103.26206 31653 ft 401 kts 252°
2026-05-07 21:57 40.61212 -103.29616 31054 ft 413 kts 252°
2026-05-07 21:57 40.60001 -103.33156 30425 ft 424 kts 252°
2026-05-07 21:58 40.58775 -103.36736 29790 ft 432 kts 252°
2026-05-07 21:58 40.57547 -103.40279 29106 ft 414 kts 251°
2026-05-07 21:58 40.56371 -103.43698 28366 ft 401 kts 252°
2026-05-07 21:58 40.55225 -103.47033 27631 ft 389 kts 252°
2026-05-07 21:59 40.54116 -103.50256 26991 ft 381 kts 252°
2026-05-07 21:59 40.53030 -103.53431 26423 ft 373 kts 252°
2026-05-07 21:59 40.51956 -103.56546 25896 ft 369 kts 252°
2026-05-07 21:59 40.50894 -103.59633 25361 ft 366 kts 251°
2026-05-07 22:00 40.49837 -103.62696 24800 ft 365 kts 251°
2026-05-07 22:00 40.48741 -103.65879 24114 ft 367 kts 250°
2026-05-07 22:00 40.47659 -103.69009 23401 ft 369 kts 250°
2026-05-07 22:00 40.46556 -103.72196 22686 ft 367 kts 250°
2026-05-07 22:01 40.45484 -103.75266 21993 ft 359 kts 249°
2026-05-07 22:01 40.44233 -103.78089 21865 ft 342 kts 243°
2026-05-07 22:01 40.43005 -103.80771 21859 ft 323 kts 244°
2026-05-07 22:01 40.41833 -103.83316 21780 ft 311 kts 244°
2026-05-07 22:02 40.40711 -103.85778 21551 ft 307 kts 245°
2026-05-07 22:02 40.39545 -103.88336 21335 ft 328 kts 244°
2026-05-07 22:02 40.38303 -103.91051 21009 ft 348 kts 244°
2026-05-07 22:02 40.36990 -103.93907 20662 ft 364 kts 244°
2026-05-07 22:03 40.35632 -103.96858 20126 ft 374 kts 243°
2026-05-07 22:03 40.34246 -103.99850 18915 ft 373 kts 243°
2026-05-07 22:03 40.32903 -104.02760 18031 ft 355 kts 243°
2026-05-07 22:03 40.31581 -104.05526 17662 ft 338 kts 238°
2026-05-07 22:04 40.29974 -104.07764 17205 ft 324 kts 229°
2026-05-07 22:04 40.28379 -104.09837 16679 ft 317 kts 230°
2026-05-07 22:04 40.26810 -104.11881 16161 ft 312 kts 230°
2026-05-07 22:04 40.25241 -104.13927 15644 ft 306 kts 230°
2026-05-07 22:05 40.23713 -104.15914 15133 ft 302 kts 230°
2026-05-07 22:05 40.22178 -104.17915 14604 ft 299 kts 230°
2026-05-07 22:05 40.20702 -104.19828 14115 ft 295 kts 230°
2026-05-07 22:05 40.19163 -104.21774 13904 ft 302 kts 224°
2026-05-07 22:06 40.17342 -104.23369 13783 ft 317 kts 216°
2026-05-07 22:06 40.15414 -104.24958 13707 ft 325 kts 217°
2026-05-07 22:06 40.13388 -104.26630 13397 ft 340 kts 217°
2026-05-07 22:06 40.11319 -104.28350 13028 ft 331 kts 217°
2026-05-07 22:07 40.09352 -104.29981 12619 ft 310 kts 217°
2026-05-07 22:07 40.07489 -104.31440 12217 ft 303 kts 208°
2026-05-07 22:07 40.05376 -104.32201 11753 ft 306 kts 197°
2026-05-07 22:07 40.03182 -104.32861 10881 ft 306 kts 195°
2026-05-07 22:08 40.01065 -104.32984 10697 ft 289 kts 176°
2026-05-07 22:08 39.99165 -104.32198 10501 ft 276 kts 154°
2026-05-07 22:08 39.97639 -104.30585 10345 ft 265 kts 131°
2026-05-07 22:08 39.96751 -104.28474 10245 ft 257 kts 109°
2026-05-07 22:09 39.96359 -104.26068 10243 ft 280 kts 106°
2026-05-07 22:09 39.95294 -104.23789 10039 ft 308 kts 139°
2026-05-07 22:09 39.93267 -104.22410 9753 ft 323 kts 169°
2026-05-07 22:09 39.91081 -104.22481 9421 ft 295 kts 199°
2026-05-07 22:10 39.89363 -104.23825 9061 ft 276 kts 223°
2026-05-07 22:10 39.87951 -104.25406 9018 ft 247 kts 223°
2026-05-07 22:10 39.86751 -104.26807 8913 ft 215 kts 236°
2026-05-07 22:10 39.86389 -104.28469 8961 ft 175 kts 277°
2026-05-07 22:11 39.86669 -104.29938 8966 ft 159 kts 292°
2026-05-07 22:11 39.87007 -104.31265 8984 ft 150 kts 282°
2026-05-07 22:11 39.87190 -104.32645 9081 ft 151 kts 279°
2026-05-07 22:11 39.87312 -104.34032 9038 ft 156 kts 276°
2026-05-07 22:12 39.87396 -104.35475 9030 ft 157 kts 274°
2026-05-07 22:12 39.87450 -104.36902 9020 ft 158 kts 273°
2026-05-07 22:12 39.87489 -104.38389 9032 ft 163 kts 273°
2026-05-07 22:12 39.87516 -104.39898 9031 ft 167 kts 272°
2026-05-07 22:13 39.87540 -104.41459 9028 ft 171 kts 272°
2026-05-07 22:13 39.87553 -104.42982 8636 ft 160 kts 272°
2026-05-07 22:13 39.87559 -104.44418 8110 ft 162 kts 272°
2026-05-07 22:13 39.87597 -104.45958 7451 ft 162 kts 272°
2026-05-07 22:14 39.87560 -104.47379 7224 ft 159 kts 263°
2026-05-07 22:14 39.87564 -104.48826 7095 ft 158 kts 275°
2026-05-07 22:14 39.87624 -104.50356 6925 ft 174 kts 273°
2026-05-07 22:14 39.87647 -104.51977 6815 ft 172 kts 272°
2026-05-07 22:15 39.87647 -104.53524 6688 ft 178 kts 272°
2026-05-07 22:15 39.87671 -104.55220 6356 ft 191 kts 272°
2026-05-07 22:15 39.87685 -104.57010 6050 ft 192 kts 272°
2026-05-07 22:15 39.87699 -104.58760 5780 ft 189 kts 272°
2026-05-07 22:16 39.87707 -104.60439 5567 ft 163 kts 272°
2026-05-07 22:16 39.87716 -104.61736 5329 ft 126 kts 273°
2026-05-07 22:16 39.87727 -104.62750 5284 ft 94 kts 272°
2026-05-07 22:16 39.87738 -104.63463 5294 ft 68 kts 270°
2026-05-07 22:17 39.87738 -104.64017 5321 ft 52 kts 271°
2026-05-07 22:17 39.87719 -104.64429 5339 ft 35 kts 250°
2026-05-07 22:17 39.87662 -104.64600 5347 ft 7 kts 243°
2026-05-07 22:17 39.87661 -104.64604 5347 ft 0 kts 242°
2026-05-07 22:18 39.87658 -104.64610 5347 ft 6 kts 242°
2026-05-07 22:18 39.87585 -104.64958 5347 ft 23 kts 273°
2026-05-07 22:18 39.87588 -104.65179 5341 ft 24 kts 268°
2026-05-07 22:19 39.87585 -104.65407 5336 ft 25 kts 268°
2026-05-07 22:19 39.87585 -104.65637 5334 ft 24 kts 273°
2026-05-07 22:19 39.87589 -104.65859 5332 ft 24 kts 273°
2026-05-07 22:19 39.87590 -104.66061 5332 ft 20 kts 272°
2026-05-07 22:20 39.87548 -104.66197 5335 ft 15 kts 190°
2026-05-07 22:20 39.87447 -104.66214 5340 ft 14 kts 182°
2026-05-07 22:20 39.87320 -104.66220 5348 ft 19 kts 180°
2026-05-07 22:20 39.87201 -104.66222 5357 ft 14 kts 180°
2026-05-07 22:21 39.87071 -104.66225 5368 ft 24 kts 183°
2026-05-07 22:21 39.86887 -104.66215 5383 ft 23 kts 180°
2026-05-07 22:21 39.86741 -104.66222 5393 ft 17 kts 180°
2026-05-07 22:21 39.86637 -104.66223 5399 ft 12 kts 180°
2026-05-07 22:22 39.86536 -104.66224 5404 ft 20 kts 182°
2026-05-07 22:22 39.86389 -104.66223 5410 ft 19 kts 179°
2026-05-07 22:22 39.86261 -104.66228 5414 ft 16 kts 181°
2026-05-07 22:22 39.86156 -104.66233 5417 ft 13 kts 183°
2026-05-07 22:23 39.86069 -104.66230 5419 ft 11 kts 177°
2026-05-07 22:23 39.85990 -104.66227 5420 ft 10 kts 179°
2026-05-07 22:23 39.85925 -104.66228 5422 ft 8 kts 182°
2026-05-07 22:23 39.85873 -104.66230 5423 ft 7 kts 181°
2026-05-07 22:24 39.85789 -104.66232 5423 ft 16 kts 179°
2026-05-07 22:24 39.85672 -104.66235 5423 ft 15 kts 183°
2026-05-07 22:24 39.85559 -104.66239 5421 ft 16 kts 182°
2026-05-07 22:24 39.85436 -104.66242 5417 ft 18 kts 181°
2026-05-07 22:25 39.85303 -104.66241 5414 ft 18 kts 181°
2026-05-07 22:25 39.85206 -104.66237 5411 ft 15 kts 179°
2026-05-07 22:25 39.85063 -104.66237 5406 ft 21 kts 175°
2026-05-07 22:25 39.84904 -104.66240 5401 ft 23 kts 182°
2026-05-07 22:26 39.84734 -104.66250 5396 ft 23 kts 181°
2026-05-07 22:26 39.84610 -104.66251 5394 ft 16 kts 177°
2026-05-07 22:26 39.84492 -104.66249 5392 ft 17 kts 180°
2026-05-07 22:26 39.84375 -104.66245 5392 ft 16 kts 175°
2026-05-07 22:27 39.84253 -104.66249 5395 ft 21 kts 182°
2026-05-07 22:27 39.84104 -104.66254 5397 ft 19 kts 183°
2026-05-07 22:27 39.84006 -104.66340 5398 ft 18 kts 229°
2026-05-07 22:27 39.83915 -104.66431 5393 ft 14 kts 221°
2026-05-07 22:28 39.83864 -104.66513 5391 ft 6 kts 249°
2026-05-07 22:28 39.83872 -104.66536 5389 ft 2 kts 358°
2026-05-07 22:28 39.83879 -104.66537 5389 ft 0 kts 359°